Location: Palombina Nuova
(43.6167°N, 13.4000°E)
Time: 18:20:08
(UTC+00:00)

Cosmos 1943 Rocket - Pass Details

Date: 17 February 2020
Orbit: 813 x 842 km, 71.0° (Epoch: 05 April)

Event Time Altitude Azimuth Distance (km) Brightness Sun altitude
Exits shadow 04:30:48 - 332° (NNW) 2,980 4.8 -17.3°
Reaches altitude 10° 04:32:17 10° 331° (NNW) 2,411 4.3 -17.0°
Maximum altitude 04:37:45 69° 249° (WSW) 871 2.0 -16.1°
Drops below altitude 10° 04:43:12 10° 167° (SSE) 2,397 4.8 -15.1°
Sets 04:45:37 0° 165° (SSE) 3,326 5.5 -14.6°
